Weather History for KLRU - March, 2014

Change the Weather History Date:

Tuesday, March 4, 2014

  Actual Average Record
Temperature  
Mean Temperature 48 °F -  
Max Temperature 61 °F 60 °F 82 °F (2009)
Min Temperature 34 °F 36 °F 17 °F (2007)
Degree Days  
Heating Degree Days 18    
Moisture  
Dew Point 32 °F    
Average Humidity 54    
Maximum Humidity 84    
Minimum Humidity 33    
Precipitation  
Precipitation 0.00 in - - ()
Sea Level Pressure  
Sea Level Pressure 30.01 in    
Wind  
Wind Speed 2 mph (WSW)    
Max Wind Speed 13 mph    
Max Gust Speed -    
Visibility 10 miles    
Events      
Averages and records for this station are not official NWS values.
T = Trace of Precipitation, MM = Missing Value Source: NWS Daily Summary

Daily Weather History Graph

Daily Weather History Graph

Search for Another Location

Airport or City:

Trip Planner

Search our weather history database for the weather conditions in past years. The results will help you decide how hot, cold, wet, or windy it might be!

Date:

Astronomy

Mar. 04, 2014 Rise Set
Actual Time 6:31 AM MST 6:07 PM MST
Civil Twilight 6:06 AM MST 6:32 PM MST
Nautical Twilight 5:38 AM MST 7:00 PM MST
Astronomical Twilight 5:10 AM MST 7:29 PM MST
Moon 8:33 AM MST (3/4) 10:01 PM MST (3/4)
Length of Visible Light 12h 25m
Length of Day
11h 36m
Waxing Crescent, 15% of the Moon is Illuminated
Mar 4
Waxing Crescent
Mar 8
First Quarter
Mar 16
Full
Mar 23
Last Quarter
Mar 30
New

Hourly Weather History & Observations

Time (MST) Temp. Windchill Dew Point Humidity Pressure Visibility Wind Dir Wind Speed Gust Speed Precip Events Conditions
12:15 AM 42.1 °F - 32.0 °F 67% 30.07 in 10.0 mi Calm Calm - N/A   Clear
12:35 AM 40.5 °F - 32.0 °F 72% 30.08 in 10.0 mi Calm Calm - N/A   Clear
12:55 AM 41.9 °F - 31.8 °F 67% 30.07 in 10.0 mi Calm Calm - N/A   Clear
1:15 AM 41.9 °F - 31.6 °F 67% 30.06 in 10.0 mi Calm Calm - N/A   Clear
1:35 AM 43.7 °F - 31.1 °F 61% 30.06 in 10.0 mi Calm Calm - N/A   Clear
1:55 AM 40.3 °F - 30.9 °F 69% 30.05 in 10.0 mi Calm Calm - N/A   Clear
2:15 AM 37.9 °F - 30.7 °F 75% 30.05 in 10.0 mi Calm Calm - N/A   Clear
2:35 AM 38.5 °F - 30.6 °F 73% 30.04 in 10.0 mi Calm Calm - N/A   Clear
2:55 AM 38.7 °F - 30.7 °F 73% 30.04 in 10.0 mi Calm Calm - N/A   Clear
3:15 AM 35.4 °F - 30.2 °F 81% 30.04 in 10.0 mi Calm Calm - N/A   Clear
3:35 AM 35.8 °F - 30.2 °F 80% 30.04 in 10.0 mi Calm Calm - N/A   Clear
3:55 AM 37.0 °F - 30.6 °F 77% 30.04 in 10.0 mi Calm Calm - N/A   Clear
4:15 AM 37.0 °F - 30.7 °F 78% 30.04 in 10.0 mi Calm Calm - N/A   Clear
4:35 AM 35.6 °F - 30.2 °F 81% 30.04 in 10.0 mi Calm Calm - N/A   Clear
4:55 AM 36.3 °F - 30.2 °F 78% 30.04 in 10.0 mi Calm Calm - N/A   Clear
5:15 AM 36.0 °F - 30.2 °F 80% 30.05 in 10.0 mi Calm Calm - N/A   Clear
5:35 AM 36.3 °F - 30.7 °F 80% 30.05 in 10.0 mi Calm Calm - N/A   Clear
5:55 AM 34.9 °F - 30.2 °F 83% 30.07 in 10.0 mi Calm Calm - N/A   Clear
6:15 AM 34.5 °F - 30.2 °F 84% 30.07 in 10.0 mi Calm Calm - N/A   Clear
6:35 AM 37.9 °F - 30.9 °F 76% 30.07 in 10.0 mi Calm Calm - N/A   Clear
6:55 AM 37.8 °F 35.3 °F 31.6 °F 79% 30.07 in 10.0 mi East 3.5 mph - N/A   Clear
7:15 AM 39.4 °F - 32.5 °F 76% 30.07 in 10.0 mi Calm Calm - N/A   Clear
7:35 AM 41.4 °F - 33.1 °F 72% 30.07 in 10.0 mi Calm Calm - N/A   Clear
7:55 AM 42.8 °F 41.1 °F 33.4 °F 70% 30.07 in 10.0 mi ENE 3.5 mph - N/A   Clear
8:15 AM 44.2 °F - 33.8 °F 67% 30.07 in 10.0 mi Calm Calm - N/A   Clear
8:35 AM 46.0 °F - 32.9 °F 60% 30.08 in 10.0 mi Calm Calm - N/A   Clear
8:55 AM 47.3 °F - 32.9 °F 57% 30.08 in 10.0 mi Calm Calm - N/A   Clear
9:15 AM 48.9 °F - 32.9 °F 54% 30.08 in 10.0 mi Calm Calm - N/A   Clear
9:35 AM 50.7 °F - 33.1 °F 51% 30.07 in 10.0 mi Calm Calm - N/A   Clear
9:55 AM 52.5 °F - 32.2 °F 46% 30.05 in 10.0 mi Calm Calm - N/A   Clear
10:15 AM 53.8 °F - 32.0 °F 44% 30.05 in 10.0 mi Calm Calm - N/A   Clear
10:35 AM 55.0 °F - 32.0 °F 42% 30.05 in 10.0 mi Calm Calm - N/A   Clear
10:55 AM 56.5 °F - 32.4 °F 40% 30.04 in 10.0 mi SSW 3.5 mph - N/A   Clear
11:15 AM 56.8 °F - 31.8 °F 39% 30.04 in 10.0 mi Calm Calm - N/A   Clear
11:35 AM 57.7 °F - 32.0 °F 38% 30.03 in 10.0 mi SSE 5.8 mph - N/A   Clear
11:55 AM 58.5 °F - 31.3 °F 36% 30.03 in 10.0 mi Calm Calm - N/A   Clear
12:15 PM 59.2 °F - 31.6 °F 35% 30.01 in 10.0 mi South 4.6 mph - N/A   Clear
12:35 PM 59.5 °F - 31.6 °F 35% 29.99 in 10.0 mi South 6.9 mph - N/A   Clear
12:55 PM 59.9 °F - 31.6 °F 34% 29.99 in 10.0 mi SSW 4.6 mph - N/A   Clear
1:15 PM 59.7 °F - 31.5 °F 34% 29.98 in 10.0 mi SW 3.5 mph - N/A   Clear
1:35 PM 60.1 °F - 31.6 °F 34% 29.99 in 10.0 mi SSW 3.5 mph - N/A   Scattered Clouds
1:55 PM 60.6 °F - 31.5 °F 33% 29.98 in 10.0 mi WSW 8.1 mph - N/A   Clear
2:15 PM 60.4 °F - 31.8 °F 34% 29.96 in 10.0 mi WSW 4.6 mph - N/A   Clear
2:35 PM 61.2 °F - 31.5 °F 33% 29.95 in 10.0 mi SW 8.1 mph - N/A   Clear
2:55 PM 61.0 °F - 31.5 °F 33% 29.94 in 10.0 mi SW 5.8 mph - N/A   Clear
3:15 PM 61.7 °F - 32.4 °F 33% 29.94 in 10.0 mi WSW 11.5 mph - N/A   Clear
3:35 PM 60.6 °F - 31.8 °F 34% 29.93 in 10.0 mi WSW 5.8 mph - N/A   Clear
3:55 PM 60.8 °F - 31.8 °F 34% 29.92 in 10.0 mi SW 9.2 mph - N/A   Clear
4:15 PM 60.4 °F - 31.3 °F 33% 29.91 in 10.0 mi SSW 9.2 mph - N/A   Clear
4:35 PM 60.3 °F - 30.7 °F 33% 29.92 in 10.0 mi SW 12.7 mph - N/A   Clear
4:55 PM 59.9 °F - 31.8 °F 35% 29.92 in 10.0 mi WSW 6.9 mph - N/A   Clear
5:15 PM 59.5 °F - 32.0 °F 35% 29.94 in 10.0 mi WSW 9.2 mph - N/A   Clear
5:35 PM 59.0 °F - 32.0 °F 36% 29.93 in 10.0 mi WSW 6.9 mph - N/A   Clear
5:55 PM 58.3 °F - 32.2 °F 37% 29.93 in 10.0 mi WSW 5.8 mph - N/A   Clear
6:15 PM 57.9 °F - 32.7 °F 39% 29.94 in 10.0 mi WSW 4.6 mph - N/A   Clear
6:35 PM 57.0 °F - 33.1 °F 40% 29.93 in 10.0 mi WSW 4.6 mph - N/A   Clear
6:55 PM 55.9 °F - 34.2 °F 44% 29.94 in 10.0 mi WSW 4.6 mph - N/A   Clear
7:15 PM 55.9 °F - 34.3 °F 44% 29.94 in 10.0 mi WSW 3.5 mph - N/A   Clear
7:35 PM 54.5 °F - 35.6 °F 49% 29.95 in 10.0 mi Calm Calm - N/A   Clear
7:55 PM 55.8 °F - 34.7 °F 45% 29.95 in 10.0 mi Calm Calm - N/A   Clear
8:15 PM 54.9 °F - 34.3 °F 46% 29.96 in 10.0 mi Calm Calm - N/A   Clear
8:35 PM 54.3 °F - 35.1 °F 48% 29.96 in 10.0 mi WNW 3.5 mph - N/A   Clear
8:55 PM 53.6 °F - 35.6 °F 51% 29.96 in 10.0 mi NNW 4.6 mph - N/A   Clear
9:15 PM 53.2 °F - 35.6 °F 51% 29.96 in 10.0 mi NNW 4.6 mph - N/A   Clear
9:35 PM 53.2 °F - 35.1 °F 50% 29.95 in 10.0 mi WNW 3.5 mph - N/A   Clear
9:55 PM 53.4 °F - 35.2 °F 50% 29.96 in 10.0 mi WNW 5.8 mph - N/A   Clear
10:15 PM 52.0 °F - 35.6 °F 54% 29.97 in 10.0 mi NW 6.9 mph - N/A   Clear
10:35 PM 52.5 °F - 35.6 °F 53% 29.97 in 10.0 mi West 8.1 mph - N/A   Clear
10:55 PM 50.4 °F - 35.6 °F 57% 29.97 in 10.0 mi WNW 4.6 mph - N/A   Scattered Clouds
11:15 PM 51.1 °F - 35.2 °F 55% 29.97 in 10.0 mi West 9.2 mph - N/A   Scattered Clouds
11:35 PM 50.2 °F - 35.2 °F 57% 29.96 in 10.0 mi West 6.9 mph - N/A   Clear
11:55 PM 48.9 °F - 35.2 °F 59% 29.97 in 10.0 mi WNW 8.1 mph - N/A   Clear